Starlink 36423

operational
NORAD ID: 67448 Int'l Des: 2026-008 Owner: SPXS Country: US Constellation: starlink
LEOCIRCULAR

About Starlink 36423

Description loading...

Live Position

Loading 3D Globe...

Upcoming Passes

Altitude History

Altitude vs Time

uPlot chart will show altitude changes over time

Two-Line Element Set

1 67448U 26008D 26066.14418104 .00025301 00000-0 92581-3 0 9997
2 67448 42.9992 219.5442 0001811 272.8111 87.2533 15.27578701 9185
Epoch: Mar 7, 2026 • Age: 16 hours

Current Status

Altitude 494.1 km
Velocity 7.62 km/s
Sub-Earth Point -40.51°S, 63.88°E
Launch Date Jan 14, 2026
Age 0.1 years
Type internet

Technical Details

Classification Payload
Mass 575.00 kg
Dry Mass 530.00 kg
Total Mass 575.00 kg
Length 0.30 m
Diameter 4.10 m
Span 29.00 m
Shape Box + pan
Manufacturer SPXS
Bus Type Starlink V2MO
Phase Status In Orbit
Owner/State SPXS/US

Large Constellations

Loading constellations...